H1 CPF 1 NER 2021 11 1 9 8051 glonass140 H2 1903001 9140 44299 2021 11 1 0 0 0 2021 11 4 23 45 0 900 1 1 0 0 0 H9 10 0 59519 0.00000 0 2311197.723 13170499.020 -21696738.615 10 0 59519 900.00000 0 -100210.253 11876259.520 -22546963.677 10 0 59519 1800.00000 0 -2670561.463 10728937.633 -22958075.397 10 0 59519 2700.00000 0 -5339213.001 9762830.148 -22921965.087 10 0 59519 3600.00000 0 -8040227.407 9001177.891 -22439254.988 10 0 59519 4500.00000 0 -10704893.927 8455278.075 -21519292.404 10 0 59519 5400.00000 0 -13264376.041 8124118.665 -20179971.008 10 0 59519 6300.00000 0 -15652374.622 7994550.035 -18447382.423 10 0 59519 7200.00000 0 -17807695.127 8041986.253 -16355304.736 10 0 59519 8100.00000 0 -19676611.116 8231605.565 -13944538.004 10 0 59519 9000.00000 0 -21214924.994 8519998.267 -11262100.016 10 0 59519 9900.00000 0 -22389639.503 8857190.898 -8360298.693 10 0 59519 10800.00000 0 -23180170.246 9188959.511 -5295700.110 10 0 59519 11700.00000 0 -23579049.069 9459332.467 -2128013.357 10 0 59519 12600.00000 0 -23592089.898 9613175.149 1081084.676 10 0 59519 13500.00000 0 -23238011.672 9598745.728 4269160.429 10 0 59519 14400.00000 0 -22547536.104 9370112.643 7374245.963 10 0 59519 15300.00000 0 -21562000.270 8889330.759 10336047.606 10 0 59519 16200.00000 0 -20331544.379 8128283.859 13097116.905 10 0 59519 17100.00000 0 -18912952.648 7070115.627 15603961.005 10 0 59519 18000.00000 0 -17367239.341 5710189.137 17808071.169 10 0 59519 18900.00000 0 -15757082.066 4056534.836 19666850.355 10 0 59519 19800.00000 0 -14144210.027 2129768.599 21144423.096 10 0 59519 20700.00000 0 -12586856.158 -37516.450 22212313.451 10 0 59519 21600.00000 0 -11137378.579 -2401859.039 22849979.590 10 0 59519 22500.00000 0 -9840149.220 -4910493.986 23045196.288 10 0 59519 23400.00000 0 -8729796.011 -7503307.272 22794279.345 10 0 59519 24300.00000 0 -7829870.043 -10115102.010 22102148.699 10 0 59519 25200.00000 0 -7151991.548 -12678082.824 20982229.685 10 0 59519 26100.00000 0 -6695508.852 -15124457.337 19456194.516 10 0 59519 27000.00000 0 -6447683.396 -17389048.733 17553548.705 10 0 59519 27900.00000 0 -6384392.446 -19411812.817 15311069.649 10 0 59519 28800.00000 0 -6471319.895 -21140156.533 12772107.163 10 0 59519 29700.00000 0 -6665585.429 -22530962.821 9985758.220 10 0 59519 30600.00000 0 -6917744.151 -23552238.337 7005930.376 10 0 59519 31500.00000 0 -7174073.225 -24184315.580 3890310.802 10 0 59519 32400.00000 0 -7379049.844 -24420559.209 699259.647 10 0 59519 33300.00000 0 -7477916.427 -24267546.473 -2505351.752 10 0 59519 34200.00000 0 -7419224.886 -23744713.390 -5661335.790 10 0 59519 35100.00000 0 -7157252.129 -22883480.607 -8707393.784 10 0 59519 36000.00000 0 -6654183.875 -21725894.582 -11584308.004 10 0 59519 36900.00000 0 -5881973.233 -20322840.259 -14236097.005 10 0 59519 37800.00000 0 -4823793.708 -18731899.554 -16611111.324 10 0 59519 38700.00000 0 -3475023.191 -17014945.115 -18663047.604 10 0 59519 39600.00000 0 -1843715.071 -15235570.202 -20351860.579 10 0 59519 40500.00000 0 49465.858 -13456462.674 -21644554.453 10 0 59519 41400.00000 0 2171842.463 -11736833.559 -22515837.448 10 0 59519 42300.00000 0 4479836.342 -10130008.615 -22948626.001 10 0 59519 43200.00000 0 6920546.219 -8681284.441 -22934388.037 10 0 59519 44100.00000 0 9433729.088 -7426139.564 -22473317.976 10 0 59519 45000.00000 0 11954102.089 -6388875.997 -21574339.393 10 0 59519 45900.00000 0 14413869.429 -5581748.417 -20254934.819 10 0 59519 46800.00000 0 16745368.752 -5004617.393 -18540805.571 10 0 59519 47700.00000 0 18883725.969 -4645140.745 -16465368.099 10 0 59519 48600.00000 0 20769407.037 -4479494.077 -14069096.756 10 0 59519 49500.00000 0 22350559.357 -4473588.819 -11398726.055 10 0 59519 50400.00000 0 23585044.222 -4584734.813 -8506328.715 10 0 59519 51300.00000 0 24442074.985 -4763675.394 -5448288.310 10 0 59519 52200.00000 0 24903392.428 -4956906.941 -2284187.676 10 0 59519 53100.00000 0 24963928.606 -5109182.892 924363.921 10 0 59519 54000.00000 0 24631932.432 -5166094.438 4114940.746 10 0 59519 54900.00000 0 23928553.199 -5076617.194 7225522.955 10 0 59519 55800.00000 0 22886901.306 -4795515.006 10195706.508 10 0 59519 56700.00000 0 21550627.506 -4285498.563 12967876.568 10 0 59519 57600.00000 0 19972082.063 -3519047.378 15488321.418 10 0 59519 58500.00000 0 18210132.527 -2479818.397 17708265.520 10 0 59519 59400.00000 0 16327732.533 -1163582.259 19584802.518 10 0 59519 60300.00000 0 14389343.801 421351.778 21081711.281 10 0 59519 61200.00000 0 12458318.878 2254239.641 22170140.640 10 0 59519 62100.00000 0 10594353.074 4302530.581 22829151.237 10 0 59519 63000.00000 0 8851110.436 6522993.613 23046105.613 10 0 59519 63900.00000 0 7274120.990 8863295.881 22816900.424 10 0 59519 64800.00000 0 5899034.829 11263968.292 22146037.435 10 0 59519 65700.00000 0 4750303.726 13660678.120 21046532.600 10 0 59519 66600.00000 0 3840343.415 15986715.737 19539665.204 10 0 59519 67500.00000 0 3169209.877 18175594.000 17654571.629 10 0 59519 68400.00000 0 2724802.024 20163654.101 15427690.875 10 0 59519 69300.00000 0 2483581.649 21892571.054 12902071.484 10 0 59519 70200.00000 0 2411780.271 23311655.895 10126552.013 10 0 59519 71100.00000 0 2467042.375 24379859.551 7154829.442 10 0 59519 72000.00000 0 2600436.412 25067395.121 4044432.317 10 0 59519 72900.00000 0 2758749.405 25356910.746 855617.298 10 0 59519 73800.00000 0 2886968.854 25244163.469 -2349790.465 10 0 59519 74700.00000 0 2930847.434 24738164.980 -5509591.130 10 0 59519 75600.00000 0 2839442.016 23860791.991 -8562415.353 10 0 59519 76500.00000 0 2567519.169 22645876.373 -11448917.440 10 0 59519 77400.00000 0 2077724.455 21137811.981 -14112932.902 10 0 59519 78300.00000 0 1342422.402 19389735.565 -16502577.510 10 0 59519 79200.00000 0 345127.545 17461357.205 -18571265.782 10 0 59519 80100.00000 0 -918535.978 15416530.713 -20278628.331 10 0 59519 81000.00000 0 -2440389.087 13320665.591 -21591309.454 10 0 59519 81900.00000 0 -4199787.853 11238088.959 -22483628.658 10 0 59519 82800.00000 0 -6164247.443 9229468.240 -22938092.423 10 0 59519 83700.00000 0 -8290575.795 7349402.871 -22945745.533 10 0 59519 84600.00000 0 -10526471.150 5644286.235 -22506354.417 10 0 59519 85500.00000 0 -12812517.625 4150527.775 -21628418.320 10 0 59520 0.00000 0 -15084495.827 2893209.950 -20329007.689 10 0 59520 900.00000 0 -17275913.202 1885235.588 -18633431.763 10 0 59520 1800.00000 0 -19320644.906 1127002.607 -16574743.528 10 0 59520 2700.00000 0 -21155578.189 606616.609 -14193089.354 10 0 59520 3600.00000 0 -22723145.770 300632.871 -11534917.981 10 0 59520 4500.00000 0 -23973642.470 175294.135 -8652064.276 10 0 59520 5400.00000 0 -24867227.204 188210.150 -5600726.608 10 0 59520 6300.00000 0 -25375526.042 290405.936 -2440358.850 10 0 59520 7200.00000 0 -25482769.131 428650.034 767500.041 10 0 59520 8100.00000 0 -25186414.331 547962.217 3960434.805 10 0 59520 9000.00000 0 -24497232.373 594192.748 7076376.279 10 0 59520 9900.00000 0 -23438851.346 516562.669 10054812.571 10 0 59520 10800.00000 0 -22046781.239 270056.696 12837964.863 10 0 59520 11700.00000 0 -20366961.033 -182432.891 15371904.821 10 0 59520 12600.00000 0 -18453890.744 -868301.896 17607592.128 10 0 59520 13500.00000 0 -16368427.674 -1803845.180 19501812.834 10 0 59520 14400.00000 0 -14175339.575 -2993340.964 21018001.508 10 0 59520 15300.00000 0 -11940716.937 -4428646.369 22126932.722 10 0 59520 16200.00000 0 -9729351.624 -6089320.844 22807270.124 10 0 59520 17100.00000 0 -7602189.826 -7943272.238 23045964.137 10 0 59520 18000.00000 0 -5613963.707 -9947898.815 22838492.000 10 0 59520 18900.00000 0 -3811098.213 -12051680.308 22188936.673 10 0 59520 19800.00000 0 -2229977.971 -14196152.922 21109903.786 10 0 59520 20700.00000 0 -895644.351 -16318187.423 19622278.471 10 0 59520 21600.00000 0 179024.948 -18352477.232 17754826.519 10 0 59520 22500.00000 0 993621.098 -20234134.703 15543646.843 10 0 59520 23400.00000 0 1559982.426 -21901289.029 13031484.834 10 0 59520 24300.00000 0 1901455.677 -23297578.899 10266918.581 10 0 59520 25200.00000 0 2051671.433 -24374436.914 7303432.289 10 0 59520 26100.00000 0 2052884.907 -25093070.807 4198393.582 10 0 59520 27000.00000 0 1953951.574 -25426058.655 1011953.249 10 0 59520 27900.00000 0 1808022.534 -25358490.784 -2194112.166 10 0 59520 28800.00000 0 1670056.488 -24888609.602 -5357593.057 10 0 59520 29700.00000 0 1594253.343 -24027919.268 -8417051.924 10 0 59520 30600.00000 0 1631518.176 -22800759.132 -11313017.615 10 0 59520 31500.00000 0 1827063.434 -21243357.347 -13989145.102 10 0 59520 32400.00000 0 2218251.826 -19402402.907 -16393317.805 10 0 59520 33300.00000 0 2832772.588 -17333194.724 -18478670.396 10 0 59520 34200.00000 0 3687229.970 -15097444.370 -20204511.400 10 0 59520 35100.00000 0 4786205.564 -12760823.838 -21537126.920 10 0 59520 36000.00000 0 6121836.259 -10390360.577 -22450449.055 10 0 59520 36900.00000 0 7673927.705 -8051788.758 -22926575.193 10 0 59520 37800.00000 0 9410600.590 -5806967.647 -22956127.365 10 0 59520 38700.00000 0 11289444.319 -3711475.232 -22538443.950 10 0 59520 39600.00000 0 13259130.997 -1812478.040 -21681599.355 10 0 59520 40500.00000 0 15261422.864 -146966.387 -20402250.774 10 0 59520 41400.00000 0 17233489.464 1259571.190 -18725314.566 10 0 59520 42300.00000 0 19110437.184 2393979.069 -16683478.396 10 0 59520 43200.00000 0 20827944.681 3255737.196 -14316558.651 10 0 59520 44100.00000 0 22324892.837 3856723.706 -11670715.927 10 0 59520 45000.00000 0 23545877.966 4220449.029 -8797544.538 10 0 59520 45900.00000 0 24443501.901 4380795.714 -5753054.645 10 0 59520 46800.00000 0 24980342.097 4380319.275 -2596567.934 10 0 59520 47700.00000 0 25130518.634 4268184.100 610450.302 10 0 59520 48600.00000 0 24880792.349 4097823.921 3805598.631 10 0 59520 49500.00000 0 24231148.483 3924427.833 6926761.823 10 0 59520 50400.00000 0 23194842.247 3802359.891 9913323.166 10 0 59520 51300.00000 0 21797905.629 3782622.657 12707342.601 10 0 59520 52200.00000 0 20078137.459 3910472.653 15254677.562 10 0 59520 53100.00000 0 18083620.412 4223288.643 17506024.947 10 0 59520 54000.00000 0 15870828.041 4748782.439 19417864.813 10 0 59520 54900.00000 0 13502401.610 5503627.118 20953288.641 10 0 59520 55800.00000 0 11044689.647 6492559.626 22082697.556 10 0 59520 56700.00000 0 8565152.288 7707994.858 22784358.643 10 0 59520 57600.00000 0 6129737.340 9130166.962 23044810.234 10 0 59520 58500.00000 0 3800335.695 10727791.850 22859109.764 10 0 59520 59400.00000 0 1632419.821 12459223.565 22230920.590 10 0 59520 60300.00000 0 -327038.723 14274057.037 21172436.811 10 0 59520 61200.00000 0 -2041288.368 16115111.476 19704147.806 10 0 59520 62100.00000 0 -3485083.805 17920713.170 17854446.823 10 0 59520 63000.00000 0 -4645487.718 19627184.118 15659090.455 10 0 59520 63900.00000 0 -5522155.851 21171434.234 13160518.477 10 0 59520 64800.00000 0 -6127094.491 22493550.334 10407045.892 10 0 59520 65700.00000 0 -6483901.007 23539274.836 7451941.422 10 0 59520 66600.00000 0 -6626519.336 24262271.100 4352408.994 10 0 59520 67500.00000 0 -6597562.580 24626080.731 1168490.748 10 0 59520 68400.00000 0 -6446272.931 24605690.392 -2038088.143 10 0 59520 69300.00000 0 -6226204.592 24188641.542 -5205111.000 10 0 59520 70200.00000 0 -5992727.254 23375635.234 -8271074.731 10 0 59520 71100.00000 0 -5800455.640 22180604.974 -11176385.132 10 0 59520 72000.00000 0 -5700714.108 20630252.875 -13864518.819 10 0 59520 72900.00000 0 -5739144.215 18763066.800 -16283128.795 10 0 59520 73800.00000 0 -5953557.528 16627858.026 -18385071.554 10 0 59520 74700.00000 0 -6372125.806 14281879.388 -20129334.921 10 0 59520 75600.00000 0 -7011986.736 11788601.509 -21481847.918 10 0 59520 76500.00000 0 -7878325.950 9215239.389 -22416156.059 10 0 59520 77400.00000 0 -8963975.962 6630132.358 -22913948.155 10 0 59520 78300.00000 0 -10249550.805 4100086.663 -22965423.661 10 0 59520 79200.00000 0 -11704112.408 1687791.715 -22569492.696 10 0 59520 80100.00000 0 -13286342.032 -550581.875 -21733804.203 10 0 59520 81000.00000 0 -14946168.494 -2567502.022 -20474601.173 10 0 59520 81900.00000 0 -16626785.314 -4325824.068 -18816405.317 10 0 59520 82800.00000 0 -18266972.007 -5800095.817 -16791537.138 10 0 59520 83700.00000 0 -19803621.626 -6977364.691 -14439480.733 10 0 59520 84600.00000 0 -21174367.593 -7857454.092 -11806105.980 10 0 59520 85500.00000 0 -22320198.361 -8452698.708 -8942763.873 10 0 59521 0.00000 0 -23187948.895 -8787151.709 -5905273.764 10 0 59521 900.00000 0 -23732563.592 -8895299.459 -2752821.665 10 0 59521 1800.00000 0 -23919033.623 -8820339.860 453203.460 10 0 59521 2700.00000 0 -23723928.374 -8612100.008 3650416.939 10 0 59521 3600.00000 0 -23136455.431 -8324682.879 6776660.347 10 0 59521 4500.00000 0 -22159005.484 -8013944.696 9771214.946 10 0 59521 5400.00000 0 -20807160.066 -7734911.123 12575982.082 10 0 59521 6300.00000 0 -19109162.775 -7539242.457 15136607.396 10 0 59521 7200.00000 0 -17104877.319 -7472855.312 17403527.165 10 0 59521 8100.00000 0 -14844276.924 -7573801.027 19332917.243 10 0 59521 9000.00000 0 -12385528.882 -7870489.734 20887527.382 10 0 59521 9900.00000 0 -9792754.409 -8380333.958 22037386.138 10 0 59521 10800.00000 0 -7133556.782 -9108867.918 22760364.407 10 0 59521 11700.00000 0 -4476419.657 -10049378.677 23042588.317 10 0 59521 12600.00000 0 -1888082.314 -11183064.041 22878694.933 10 0 59521 13500.00000 0 569001.038 -12479710.486 22271927.040 10 0 59521 14400.00000 0 2839014.613 -13898863.049 21234065.892 10 0 59521 15300.00000 0 4874851.497 -15391439.034 19785203.517 10 0 59521 16200.00000 0 6639817.416 -16901719.243 17953358.773 10 0 59521 17100.00000 0 8108898.925 -18369634.924 15773943.870 10 0 59521 18000.00000 0 9269544.743 -19733256.312 13289090.711 10 0 59521 18900.00000 0 10121928.854 -20931380.117 10546848.786 10 0 59521 19800.00000 0 10678685.100 -21906108.834 7600268.749 10 0 59521 20700.00000 0 10964124.652 -22605314.607 4506388.151 10 0 59521 21600.00000 0 11012969.174 -22984884.632 1325137.755 10 0 59521 22500.00000 0 10868652.688 -23010653.693 -1881811.367 10 0 59521 23400.00000 0 10581263.228 -22659941.858 -5052238.130 10 0 59521 24300.00000 0 10205210.802 -21922631.548 -8124576.427 10 0 59521 25200.00000 0 9796719.899 -20801737.049 -11039111.442 10 0 59521 26100.00000 0 9411252.543 -19313440.698 -13739143.720 10 0 59521 27000.00000 0 9100971.214 -17486592.207 -16172097.946 10 0 59521 27900.00000 0 8912349.554 -15361690.134 -18290554.295 10 0 59521 28800.00000 0 8884032.913 -12989386.453 -20053181.485 10 0 59521 29700.00000 0 9045040.392 -10428575.265 -21425552.701 10 0 59521 30600.00000 0 9413385.836 -7744144.363 -22380827.740 10 0 59521 31500.00000 0 9995177.577 -5004482.860 -22900287.289 10 0 59521 32400.00000 0 10784236.497 -2278848.405 -22973708.250 10 0 59521 33300.00000 0 11762250.033 365296.340 -22599572.089 10 0 59521 34200.00000 0 12899456.876 2864866.743 -21785101.497 10 0 59521 35100.00000 0 14155834.477 5163550.891 -20546124.120 10 0 59521 36000.00000 0 15482739.940 7213915.841 -18906765.545 10 0 59521 36900.00000 0 16824935.279 8979137.437 -16898977.318 10 0 59521 37800.00000 0 18122911.478 10434281.653 -14561909.157 10 0 59521 38700.00000 0 19315412.768 11567084.523 -11941137.830 10 0 59521 39600.00000 0 20342053.779 12378198.935 -9087768.339 10 0 59521 40500.00000 0 21145918.181 12880899.518 -6057425.761 10 0 59521 41400.00000 0 21676028.148 13100259.981 -2909158.434 10 0 59521 42300.00000 0 21889579.573 13071839.684 295724.753 10 0 59521 43200.00000 0 21753848.161 12839937.297 3494859.085 10 0 59521 44100.00000 0 21247685.753 12455487.578 6626046.049 10 0 59521 45000.00000 0 20362543.974 11973692.222 9628467.787 10 0 59521 45900.00000 0 19102982.587 11451486.679 12443869.697 10 0 59521 46800.00000 0 17486641.894 10944951.152 15017687.943 10 0 59521 47700.00000 0 15543681.224 10506775.772 17300100.141 10 0 59521 48600.00000 0 13315707.813 10183886.954 19246979.550 10 0 59521 49500.00000 0 10854241.458 10015334.490 20820735.413 10 0 59521 50400.00000 0 8218779.283 10030527.481 21991024.562 10 0 59521 51300.00000 0 5474541.036 10247892.130 22735322.157 10 0 59521 52200.00000 0 2689987.867 10674006.661 23039342.159 10 0 59521 53100.00000 0 -65783.465 11303248.608 22897300.865 10 0 59521 54000.00000 0 -2725664.609 12117968.610 22312019.633 10 0 59521 54900.00000 0 -5227071.003 13089183.170 21294865.559 10 0 59521 55800.00000 0 -7514285.594 14177757.622 19865531.562 10 0 59521 56700.00000 0 -9540515.864 15336030.456 18051659.950 10 0 59521 57600.00000 0 -11269580.710 16509812.093 15888316.062 10 0 59521 58500.00000 0 -12677158.714 17640675.667 13417321.193 10 0 59521 59400.00000 0 -13751547.133 18668445.175 10686456.443 10 0 59521 60300.00000 0 -14493900.821 19533777.914 7748551.472 10 0 59521 61200.00000 0 -14917941.488 20180733.718 4660474.554 10 0 59521 62100.00000 0 -15049149.581 20559223.610 1482042.242 10 0 59521 63000.00000 0 -14923472.486 20627234.962 -1725131.211 10 0 59521 63900.00000 0 -14585602.973 20352738.999 -4898822.900 10 0 59521 64800.00000 0 -14086900.013 19715199.337 -7977406.131 10 0 59521 65700.00000 0 -13483039.255 18706616.538 -10901047.725 10 0 59521 66600.00000 0 -12831492.207 17332062.846 -13612874.185 10 0 59521 67500.00000 0 -12188940.636 15609682.522 -16060083.676 10 0 59521 68400.00000 0 -11608735.765 13570155.516 -18194981.580 10 0 59521 69300.00000 0 -11138510.292 11255644.892 -19975918.750 10 0 59521 70200.00000 0 -10818044.953 8718270.164 -21368113.509 10 0 59521 71100.00000 0 -10677480.851 6018168.737 -22344340.614 10 0 59521 72000.00000 0 -10735954.230 3221225.326 -22885473.017 10 0 59521 72900.00000 0 -11000712.588 396563.235 -22980865.145 10 0 59521 73800.00000 0 -11466750.598 -2386098.351 -22628569.553 10 0 59521 74700.00000 0 -12116982.264 -5059110.892 -21835382.056 10 0 59521 75600.00000 0 -12922942.828 -7559475.687 -20616713.941 10 0 59521 76500.00000 0 -13845991.323 -9831227.963 -18996293.259 10 0 59521 77400.00000 0 -14838963.118 -11827526.163 -17005700.814 10 0 59521 78300.00000 0 -15848202.471 -13512359.214 -14683749.819 10 0 59521 79200.00000 0 -16815888.626 -14861800.733 -12075721.537 10 0 59521 80100.00000 0 -17682556.308 -15864758.249 -9232472.379 10 0 59521 81000.00000 0 -18389702.994 -16523187.262 -6209430.677 10 0 59521 81900.00000 0 -18882371.651 -16851762.732 -3065503.728 10 0 59521 82800.00000 0 -19111598.655 -16877023.756 138082.259 10 0 59521 83700.00000 0 -19036622.622 -16636029.768 3338985.413 10 0 59521 84600.00000 0 -18626760.259 -16174587.231 6474970.018 10 0 59521 85500.00000 0 -17862869.895 -15545123.877 9485121.935 10 0 59522 0.00000 0 -16738341.220 -14804302.276 12311033.106 10 0 59522 900.00000 0 -15259569.374 -14010474.511 14897933.317 10 0 59522 1800.00000 0 -13445895.636 -13221087.297 17195743.592 10 0 59522 2700.00000 0 -11329015.869 -12490145.901 19160036.594 10 0 59522 3600.00000 0 -8951883.381 -11865844.355 20752882.658 10 0 59522 4500.00000 0 -6367151.786 -11388460.425 21943568.029 10 0 59522 5400.00000 0 -3635222.665 -11088602.688 22709172.760 10 0 59522 6300.00000 0 -821978.628 -10985881.870 23034998.786 10 0 59522 7200.00000 0 2003705.100 -11088060.808 22914841.300 10 0 59522 8100.00000 0 4772568.860 -11390717.459 22351099.454 10 0 59522 9000.00000 0 7417590.276 -11877434.260 21354725.016 10 0 59522 9900.00000 0 9876512.794 -12520505.533 19945010.287 10 0 59522 10800.00000 0 12094178.371 -13282133.421 18149219.210 10 0 59522 11700.00000 0 14024569.498 -14116062.847 16002068.163 10 0 59522 12600.00000 0 15632477.422 -14969587.837 13545065.486 10 0 59522 13500.00000 0 16894728.539 -15785846.202 10825721.290 10 0 59522 14400.00000 0 17800918.820 -16506307.331 7896641.433 10 0 59522 15300.00000 0 18353626.071 -17073349.565 4814521.911 10 0 59522 16200.00000 0 18568091.294 -17432819.397 1639061.956 10 0 59522 17100.00000 0 18471382.318 -17536464.999 -1568184.130 10 0 59522 18000.00000 0 18101074.378 -17344141.304 -4744994.705 10 0 59522 18900.00000 0 17503502.645 -16825692.893 -7829685.416 10 0 59522 19800.00000 0 16731659.798 -15962433.992 -10762307.432 10 0 59522 20700.00000 0 15842826.868 -14748161.486 -13485815.661 10 0 59522 21600.00000 0 14896037.110 -13189656.146 -15947183.879 10 0 59522 22500.00000 0 13949479.983 -11306648.684 -18098444.498 10 0 59522 23400.00000 0 13057955.093 -9131249.728 -19897631.994 10 0 59522 24300.00000 0 12270484.114 -6706865.376 -21309610.940 10 0 59522 25200.00000 0 11628182.180 -4086641.715 -22306771.799 10 0 59522 26100.00000 0 11162479.450 -1331501.750 -22869580.128 10 0 59522 27000.00000 0 10893768.757 1492144.498 -22986967.816 10 0 59522 27900.00000 0 10830537.301 4314922.053 -22656558.040 10 0 59522 28800.00000 0 10969019.767 7067140.315 -21884718.895 10 0 59522 29700.00000 0 11293388.089 9681459.358 -20686444.095 10 0 59522 30600.00000 0 11776470.133 12095461.857 -19085062.610 10 0 59522 31500.00000 0 12380966.959 14254023.021 -17111782.627 10 0 59522 32400.00000 0 13061116.846 16111379.423 -14805078.678 10 0 59522 33300.00000 0 13764735.092 17632810.259 -12209934.042 10 0 59522 34200.00000 0 14435542.288 18795860.911 -9376953.780 10 0 59522 35100.00000 0 15015681.398 19591058.309 -6361366.482 10 0 59522 36000.00000 0 15448315.821 20022089.279 -3221935.208 10 0 59522 36900.00000 0 15680197.191 20105435.952 -19800.196 10 0 59522 37800.00000 0 15664093.188 19869485.630 3182722.844 10 0 59522 38700.00000 0 15360971.778 19353154.762 6323364.194 10 0 59522 39600.00000 0 14741849.128 18604087.280 9341116.456 10 0 59522 40500.00000 0 13789222.987 17676505.291 12177421.350 10 0 59522 41400.00000 0 12498031.297 16628804.457 14777303.679 10 0 59522 42300.00000 0 10876096.099 15520996.559 17090430.460 10 0 59522 43200.00000 0 8944034.588 14412107.521 19072075.441 10 0 59522 44100.00000 0 6734641.445 13357640.260 20683971.339 10 0 59522 45000.00000 0 4291768.593 12407208.335 21895034.693 10 0 59522 45900.00000 0 1668748.974 11602438.528 22681950.938 10 0 59522 46800.00000 0 -1073570.501 10975228.810 23029610.015 10 0 59522 47700.00000 0 -3869105.983 10546433.023 22931385.584 10 0 59522 48600.00000 0 -6649030.538 10325025.774 22389253.692 10 0 59522 49500.00000 0 -9344383.167 10307781.116 21413749.381 10 0 59522 50400.00000 0 -11888686.679 10479477.554 20023762.450 10 0 59522 51300.00000 0 -14220467.964 10813620.254 18246176.159 10 0 59522 52200.00000 0 -16285578.091 11273650.233 16115355.211 10 0 59522 53100.00000 0 -18039217.552 11814590.265 13672492.004 10 0 59522 54000.00000 0 -19447583.879 12385059.185 10964822.504 10 0 59522 54900.00000 0 -20489074.036 12929570.891 8044725.540 10 0 59522 55800.00000 0 -21154991.880 13391022.299 4968721.670 10 0 59522 56700.00000 0 -21449731.315 13713266.225 1796389.764 10 0 59522 57600.00000 0 -21390427.213 13843661.184 -1410778.695 10 0 59522 58500.00000 0 -21006088.248 13735490.561 -4590565.986 10 0 59522 59400.00000 0 -20336247.430 13350148.521 -7681232.541 10 0 59522 60300.00000 0 -19429186.451 12658999.354 -10622716.097 10 0 59522 61200.00000 0 -18339807.957 11644830.266 -13357801.954 10 0 59522 62100.00000 0 -17127244.981 10302834.388 -15833241.227 10 0 59522 63000.00000 0 -15852308.016 8641080.297 -18000794.802 10 0 59522 63900.00000 0 -14574877.366 6680445.934 -19818181.899 10 0 59522 64800.00000 0 -13351350.877 4454017.220 -21249914.149 10 0 59522 65700.00000 0 -12232255.058 2005974.280 -22267998.187 10 0 59522 66600.00000 0 -11260120.802 -609989.994 -22852492.309 10 0 59522 67500.00000 0 -10467713.838 -3332654.613 -22991905.674 10 0 59522 68400.00000 0 -9876695.081 -6095576.646 -22683431.560 10 0 59522 69300.00000 0 -9496767.873 -8829623.300 -21933009.480 10 0 59522 70200.00000 0 -9325348.390 -11465624.591 -20755214.392 10 0 59522 71100.00000 0 -9347773.206 -13937035.953 -19172974.676 10 0 59522 72000.00000 0 -9538035.091 -16182499.309 -17217124.105 10 0 59522 72900.00000 0 -9860015.420 -18148195.332 -14925796.459 10 0 59522 73800.00000 0 -10269160.270 -19789888.352 -12343674.762 10 0 59522 74700.00000 0 -10714528.190 -21074578.150 -9521110.310 10 0 59522 75600.00000 0 -11141121.603 -21981689.819 -6513129.441 10 0 59522 76500.00000 0 -11492401.654 -22503752.474 -3378348.422 10 0 59522 77400.00000 0 -11712878.513 -22646539.460 -177818.946 10 0 59522 78300.00000 0 -11750666.051 -22428665.804 3026172.007 10 0 59522 79200.00000 0 -11559891.631 -21880661.785 6171323.299 10 0 59522 80100.00000 0 -11102858.261 -21043563.702 9196536.821 10 0 59522 81000.00000 0 -10351867.304 -19967083.258 12043106.339 10 0 59522 81900.00000 0 -9290624.730 -18707434.468 14655854.591 10 0 59522 82800.00000 0 -7915171.882 -17324910.925 16984196.582 10 0 59522 83700.00000 0 -6234302.002 -15881316.175 18983109.164 10 0 59522 84600.00000 0 -4269445.382 -14437355.313 20613989.155 10 0 59522 85500.00000 0 -2054028.306 -13050096.827 21845384.749 99